Regional Weather Roundup
Issued by NWS

Home | Current Version | Previous Version | Text Only | Print | Product List | Glossary Off
Versions: 1 2 3 4 5 6 7 8 9 10 11 12 13 14 15 16 17 18 19 20 21 22 23 24 25 26 27 28 29 30 31 32 33 34 35 36 37 38 39 40 41 42 43 44 45 46 47 48 49 50

000
ASUS43 KOAX 010202
RWRNE

WEATHER ROUNDUP FOR NEBRASKA
NATIONAL WEATHER SERVICE OMAHA NE
900 PM CDT FRI JUL 31 2015

NOTES: SATELLITE DATA IS BEING USED TO AUGMENT CLOUD COVER ABOVE
       12000 FEET.
       "FAIR" INDICATES FEW OR NO CLOUDS BELOW 12,000 FEET WITH NO
       SIGNIFICANT WEATHER AND/OR OBSTRUCTIONS TO VISIBILITY.

  * THESE STATIONS DO NOT REPORT WEATHER SUCH AS RAIN...SNOW OR FOG.

NEZ001>004-019>022-054>056-010300-
NEBRASKA PANHANDLE

CITY           SKY/WX    TMP DP  RH WIND       PRES   REMARKS
SCOTTSBLUFF    CLEAR     77  60  55 E7        30.14R
ALLIANCE       CLEAR     75  59  57 E8        30.14R
CHADRON        CLEAR     81  55  40 S8        30.08F
KIMBALL        CLEAR     74  52  46 E6        30.19S
SIDNEY         PTCLDY    79  49  34 SE8       30.17R
$$

NEZ057>060-069>072-079>082-010300-
SOUTHWEST NEBRASKA

CITY           SKY/WX    TMP DP  RH WIND       PRES   REMARKS
NORTH PLATTE   PTCLDY    77  66  68 E8        30.08S
IMPERIAL       CLEAR     81  60  48 E6        30.11R
LEXINGTON      CLEAR     76  62  61 E13G23    30.11R
MCCOOK         PTCLDY    85  60  42 S6        30.08R
$$

NEZ005>010-023>029-035>040-094-010300-
NORTH CENTRAL NEBRASKA

CITY           SKY/WX    TMP DP  RH WIND       PRES   REMARKS
VALENTINE      CLEAR     82  59  45 NE9       30.09R
BROKEN BOW     PTCLDY    77  63  61 SE10      30.11F
ORD            MOCLDY    69  63  81 CALM      30.08S
$$

NEZ041-046>049-061>064-073>077-083>087-010300-
SOUTH CENTRAL NEBRASKA

CITY           SKY/WX    TMP DP  RH WIND       PRES   REMARKS
GRAND ISLAND   CLOUDY    70  62  76 S13       30.09F
AURORA         CLOUDY    70  63  78 S5        30.08F
HASTINGS       MOCLDY    74  56  53 E9G21     30.12R
KEARNEY *      CLEAR     72  59  64 E12       30.12R
$$

NEZ011>018-030>034-042>045-010300-
NORTHEAST NEBRASKA

CITY           SKY/WX    TMP DP  RH WIND       PRES   REMARKS
NORFOLK        CLEAR     71  62  73 CALM      30.06S
BLAIR          PTCLDY    77  71  83 NW6       30.05R
COLUMBUS *     PTCLDY    68  61  77 CALM      30.04F
TEKAMAH        CLEAR     72  69  90 S5        30.04R
$$

NEZ050>053-065>068-078-088>093-010300-
SOUTHEAST NEBRASKA

CITY           SKY/WX    TMP DP  RH WIND       PRES   REMARKS
LINCOLN        CLOUDY    76  63  64 E6        30.05R
OMAHA EPPLEY   MOCLDY    79  74  84 N6        30.03R
FALLS CITY     MOCLDY    82  74  76 SW6       30.04R
$$

NEZ044-045-051>053-067-010300-
OMAHA AREA

CITY           SKY/WX    TMP DP  RH WIND       PRES   REMARKS
OMAHA EPPLEY   MOCLDY    79  74  84 N6        30.03R
BLAIR          PTCLDY    77  71  83 NW6       30.05R
OFFUTT AFB     MOCLDY    76  68  76 CALM      30.03R
$$



USA.gov is the U.S. government's official web portal to all federal, state and local government web resources and services.